Billy Budd — VSPI7 — position and weather

sailwx.info

Track history (hours):
 
Tides and Currents Weather Stations Pressure Air Temp Water Temp Dewpoint Dewpoint Depression Visibility Wind Speed Wind Dir Waves Ship Positions

Billy Budd

Last reported at 2014-Aug-18 09:23 UTC. Time now 2014-Aug-20 16:37 UTC.
Position N 37°30' E 024°27'.

Length 35 m.

Type: Sailing vessel. MMSI: 235003490.

Date/timePositionNaut miles runAvg speedWind from/ knotsBaromVisibWave heightAir tempDewpointWater temp
2014-Aug-18 09:23N 37°30' E 024°27'910.2
2014-Aug-18 08:32N 37°28' E 024°38'14 0.6
2014-Aug-17 09:33N 37°22' E 024°54'7 6.5
2014-Aug-17 08:32N 37°23' E 025°02'8 7.9
2014-Aug-17 07:33N 37°24' E 025°12'1 0.9
2014-Aug-17 06:31N 37°24' E 025°13'0 0.0
2014-Aug-17 05:31N 37°24' E 025°13'0 0.0
2014-Aug-17 04:31N 37°24' E 025°13'0 0.0
2014-Aug-17 03:31N 37°24' E 025°13'0 0.0
2014-Aug-17 02:31N 37°24' E 025°13'0 0.0
2014-Aug-17 01:32N 37°24' E 025°13'0 0.0
2014-Aug-17 00:31N 37°24' E 025°13'0 0.0
2014-Aug-16 23:31N 37°24' E 025°13'0 0.0
2014-Aug-16 22:32N 37°24' E 025°13'0 0.0
2014-Aug-16 21:31N 37°24' E 025°13'0 0.0
2014-Aug-16 20:32N 37°24' E 025°13'0 0.0
2014-Aug-16 19:31N 37°24' E 025°13'0 0.0
2014-Aug-16 18:32N 37°24' E 025°13'0 0.0
2014-Aug-16 17:32N 37°24' E 025°13'0 0.0
2014-Aug-16 16:31N 37°24' E 025°13'0 0.0
2014-Aug-16 15:32N 37°24' E 025°13'0 0.0
2014-Aug-16 14:33N 37°24' E 025°13'0 0.2
2014-Aug-16 13:32N 37°24' E 025°13'0 0.4
2014-Aug-16 12:33N 37°24' E 025°13'2 2.4
2014-Aug-16 11:32N 37°23' E 025°16'0 0.0
2014-Aug-16 10:32N 37°23' E 025°16'0 0.0
2014-Aug-16 09:32N 37°23' E 025°16'0 0.2
2014-Aug-16 08:33N 37°24' E 025°16'4 4.1
2014-Aug-16 07:33N 37°27' E 025°19'1 0.6
2014-Aug-16 06:33N 37°27' E 025°19'0 0.0
2014-Aug-16 05:33N 37°27' E 025°19'0 0.0
2014-Aug-16 04:33N 37°27' E 025°19'0 0.0
2014-Aug-16 03:33N 37°27' E 025°19'0 0.0
2014-Aug-16 02:33N 37°27' E 025°19'0 0.0
2014-Aug-16 01:33N 37°27' E 025°19'0 0.0
2014-Aug-16 00:33N 37°27' E 025°19'0 0.0
2014-Aug-15 23:33N 37°27' E 025°19'0 0.0
2014-Aug-15 22:33N 37°27' E 025°19'0 0.0
2014-Aug-15 21:33N 37°27' E 025°19'0 0.0
2014-Aug-15 20:33N 37°27' E 025°19'0 0.0
2014-Aug-15 19:33N 37°27' E 025°19'0 0.0
2014-Aug-15 18:33N 37°27' E 025°19'0 0.0
2014-Aug-15 17:33N 37°27' E 025°19'0 0.0
2014-Aug-15 16:33N 37°27' E 025°19'3 3.0
2014-Aug-15 15:33N 37°24' E 025°19'4 4.0
2014-Aug-15 14:31N 37°25' E 025°24'0 0.0
2014-Aug-15 13:25N 37°25' E 025°24'0 0.0
2014-Aug-15 12:31N 37°25' E 025°24'0 0.0
2014-Aug-15 11:31N 37°25' E 025°24'0 0.0
2014-Aug-15 10:31N 37°25' E 025°24'0 0.0
2014-Aug-15 09:31N 37°25' E 025°24'7 7.4
2014-Aug-15 08:33N 37°18' E 025°22'8 7.9
2014-Aug-15 07:33N 37°11' E 025°22'5 4.7
2014-Aug-15 06:33N 37°06' E 025°22'0 0.0
2014-Aug-15 05:33N 37°06' E 025°22'0 0.0
2014-Aug-15 04:33N 37°06' E 025°22'0 0.0
2014-Aug-15 03:33N 37°06' E 025°22'0 0.0
2014-Aug-15 02:33N 37°06' E 025°22'0 0.0
2014-Aug-15 01:33N 37°06' E 025°22'0 0.0
2014-Aug-15 00:33N 37°06' E 025°22'0 0.0
2014-Aug-14 23:33N 37°06' E 025°22'0 0.0
2014-Aug-14 22:33N 37°06' E 025°22'0 0.0
2014-Aug-14 21:33N 37°06' E 025°22'0 0.0
2014-Aug-14 20:33N 37°06' E 025°22'0 0.0
2014-Aug-14 19:33N 37°06' E 025°22'0 0.0
2014-Aug-14 18:33N 37°06' E 025°22'0 0.0
2014-Aug-14 17:33N 37°06' E 025°22'0 0.0
2014-Aug-14 16:33N 37°06' E 025°22'0 0.0
2014-Aug-14 15:33N 37°06' E 025°22'0 0.0
2014-Aug-14 14:33N 37°06' E 025°22'0 0.0
2014-Aug-14 13:33N 37°06' E 025°22'0 0.0
2014-Aug-14 12:33N 37°06' E 025°22'0 0.0
2014-Aug-14 11:33N 37°06' E 025°22'0 0.0
2014-Aug-14 10:33N 37°06' E 025°22'0 0.0
2014-Aug-14 09:33N 37°06' E 025°22'0 0.0
2014-Aug-14 08:33N 37°06' E 025°22'0 0.1
2014-Aug-14 07:32N 37°06' E 025°22'0 0.0
2014-Aug-14 06:31N 37°06' E 025°22'0 0.0
2014-Aug-14 05:31N 37°06' E 025°22'0 0.0
2014-Aug-14 04:32N 37°06' E 025°22'0 0.0
2014-Aug-14 03:32N 37°06' E 025°22'0 0.0
2014-Aug-14 02:29N 37°06' E 025°22'0 0.0
2014-Aug-14 01:32N 37°06' E 025°22'0 0.0
2014-Aug-14 00:29N 37°06' E 025°22'0 0.0
2014-Aug-13 23:32N 37°06' E 025°22'0 0.0
2014-Aug-13 22:32N 37°06' E 025°22'0 0.0
2014-Aug-13 21:29N 37°06' E 025°22'0 0.0
2014-Aug-13 20:32N 37°06' E 025°22'0 0.0
2014-Aug-13 19:29N 37°06' E 025°22'0 0.0
2014-Aug-13 18:32N 37°06' E 025°22'0 0.0
2014-Aug-13 17:32N 37°06' E 025°22'0 0.0
2014-Aug-13 16:29N 37°06' E 025°22'0 0.5
2014-Aug-13 15:33N 37°06' E 025°22'6 5.8
2014-Aug-13 14:33N 37°01' E 025°20'8 7.5
2014-Aug-13 13:32N 36°53' E 025°23'4 4.3
2014-Aug-13 12:33N 36°50' E 025°25'0 0.0
2014-Aug-13 11:27N 36°50' E 025°25'0 0.0
2014-Aug-13 10:27N 36°50' E 025°25'0 0.0
2014-Aug-13 09:33N 36°50' E 025°25'1 1.0
2014-Aug-13 08:32N 36°49' E 025°26'5 5.3
2014-Aug-13 07:31N 36°51' E 025°32'0 0.0
2014-Aug-13 06:31N 36°51' E 025°32'0 0.0
2014-Aug-13 05:31N 36°51' E 025°32'0 0.0
2014-Aug-13 04:31N 36°51' E 025°32'0 0.0
2014-Aug-13 03:31N 36°51' E 025°32'0 0.0
2014-Aug-13 02:31N 36°51' E 025°32'0 0.0
2014-Aug-13 01:31N 36°51' E 025°32'0 0.0
2014-Aug-13 00:31N 36°51' E 025°32'0 0.0
2014-Aug-12 23:31N 36°51' E 025°32'0 0.0
2014-Aug-12 22:31N 36°51' E 025°32'0 0.0
2014-Aug-12 21:25N 36°51' E 025°32'0 0.0
2014-Aug-12 20:31N 36°51' E 025°32'0 0.0
2014-Aug-12 19:31N 36°51' E 025°32'0 0.0
2014-Aug-12 18:31N 36°51' E 025°32'0 0.0
2014-Aug-12 17:31N 36°51' E 025°32'0 0.0
2014-Aug-12 16:31N 36°51' E 025°32'0 0.0
2014-Aug-12 15:25N 36°51' E 025°32'0 0.0
2014-Aug-12 14:31N 36°51' E 025°32'0 0.0
2014-Aug-12 13:25N 36°51' E 025°32'1 1.4
2014-Aug-12 12:33N 36°51' E 025°33'6 5.9
2014-Aug-12 11:28N 36°51' E 025°41'0 0.0
2014-Aug-12 10:28N 36°51' E 025°41'0 0.0
2014-Aug-12 09:28N 36°51' E 025°41'0 0.0
2014-Aug-12 08:28N 36°51' E 025°41'4 4.0
2014-Aug-12 07:33N 36°50' E 025°46'5 3.8
2014-Aug-12 06:22N 36°50' E 025°51'0 0.0
2014-Aug-12 05:22N 36°50' E 025°51'0 0.0
2014-Aug-12 04:28N 36°50' E 025°51'0 0.0
2014-Aug-12 03:28N 36°50' E 025°51'0 0.0
2014-Aug-12 02:28N 36°50' E 025°51'0 0.0
2014-Aug-12 01:28N 36°50' E 025°51'0 0.0
2014-Aug-12 00:28N 36°50' E 025°51'0 0.0
2014-Aug-11 23:22N 36°50' E 025°51'0 0.0
2014-Aug-11 22:10N 36°50' E 025°51'0 0.0
2014-Aug-11 21:28N 36°50' E 025°51'0 0.0
2014-Aug-11 20:28N 36°50' E 025°51'0 0.0
2014-Aug-11 19:22N 36°50' E 025°51'0 0.0
2014-Aug-11 18:28N 36°50' E 025°51'0 0.0
2014-Aug-11 17:28N 36°50' E 025°51'0 0.0
2014-Aug-11 16:22N 36°50' E 025°51'0 0.0
2014-Aug-11 15:22N 36°50' E 025°51'0 0.0
2014-Aug-11 14:28N 36°50' E 025°51'0 0.0
2014-Aug-11 13:28N 36°50' E 025°51'0 0.0
2014-Aug-11 12:28N 36°50' E 025°51'3 2.7
2014-Aug-11 11:32N 36°50' E 025°48'6 5.7
2014-Aug-11 10:32N 36°46' E 025°42'7 7.5
2014-Aug-11 09:33N 36°41' E 025°36'10 9.7
2014-Aug-11 08:33N 36°34' E 025°27'6 6.0
2014-Aug-11 07:32N 36°30' E 025°22'6 0.3
2014-Aug-10 14:10N 36°24' E 025°25'5 6.8
2014-Aug-10 13:30N 36°21' E 025°21'2 0.4
2014-Aug-10 08:29N 36°23' E 025°21'7 7.9
2014-Aug-10 07:33N 36°30' E 025°21'9 8.5
2014-Aug-10 06:33N 36°38' E 025°18'4 4.1
2014-Aug-10 05:29N 36°43' E 025°17'0 0.0
2014-Aug-10 04:30N 36°43' E 025°17'0 0.0
2014-Aug-10 03:30N 36°43' E 025°17'0 0.0
2014-Aug-10 02:30N 36°43' E 025°17'0 0.0
2014-Aug-10 01:30N 36°43' E 025°17'0 0.0
2014-Aug-10 00:30N 36°43' E 025°17'0 0.0
2014-Aug-09 23:30N 36°43' E 025°17'0 0.0
2014-Aug-09 22:30N 36°43' E 025°17'0 0.0
2014-Aug-09 21:24N 36°43' E 025°17'0 0.0
2014-Aug-09 20:24N 36°43' E 025°17'0 0.0
2014-Aug-09 19:24N 36°43' E 025°17'0 0.0
2014-Aug-09 18:30N 36°43' E 025°17'0 0.0
2014-Aug-09 17:30N 36°43' E 025°17'1 0.7
2014-Aug-09 16:19N 36°43' E 025°16'0 0.1
2014-Aug-09 15:30N 36°43' E 025°16'0 0.0
2014-Aug-09 14:30N 36°43' E 025°16'0 0.1
2014-Aug-09 13:33N 36°43' E 025°16'6 6.0
2014-Aug-09 12:33N 36°40' E 025°09'3 3.1
2014-Aug-09 11:32N 36°39' E 025°06'0 0.0
2014-Aug-09 10:32N 36°39' E 025°06'0 0.1
2014-Aug-09 09:32N 36°39' E 025°06'7 6.6
2014-Aug-09 08:31N 36°41' E 024°58'8 8.3
2014-Aug-09 07:33N 36°47' E 024°51'8 8.2
2014-Aug-09 06:33N 36°52' E 024°44'  
Track history (hours):
 
Tides and Currents Weather Stations Pressure Air Temp Water Temp Dewpoint Dewpoint Depression Visibility Wind Speed Wind Dir Waves Ship Positions

Billy Budd

Last reported at 2014-Aug-18 09:23 UTC. Time now 2014-Aug-20 16:37 UTC.
Position N 37°30' E 024°27'.

Length 35 m.

Type: Sailing vessel. MMSI: 235003490.

Date/timePositionNaut miles runAvg speedWind from/ knotsBaromVisibWave heightAir tempDewpointWater temp
2014-Aug-18 09:23N 37°30' E 024°27'910.2
2014-Aug-18 08:32N 37°28' E 024°38'14 0.6
2014-Aug-17 09:33N 37°22' E 024°54'7 6.5
2014-Aug-17 08:32N 37°23' E 025°02'8 7.9
2014-Aug-17 07:33N 37°24' E 025°12'1 0.9
2014-Aug-17 06:31N 37°24' E 025°13'0 0.0
2014-Aug-17 05:31N 37°24' E 025°13'0 0.0
2014-Aug-17 04:31N 37°24' E 025°13'0 0.0
2014-Aug-17 03:31N 37°24' E 025°13'0 0.0
2014-Aug-17 02:31N 37°24' E 025°13'0 0.0
2014-Aug-17 01:32N 37°24' E 025°13'0 0.0
2014-Aug-17 00:31N 37°24' E 025°13'0 0.0
2014-Aug-16 23:31N 37°24' E 025°13'0 0.0
2014-Aug-16 22:32N 37°24' E 025°13'0 0.0
2014-Aug-16 21:31N 37°24' E 025°13'0 0.0
2014-Aug-16 20:32N 37°24' E 025°13'0 0.0
2014-Aug-16 19:31N 37°24' E 025°13'0 0.0
2014-Aug-16 18:32N 37°24' E 025°13'0 0.0
2014-Aug-16 17:32N 37°24' E 025°13'0 0.0
2014-Aug-16 16:31N 37°24' E 025°13'0 0.0
2014-Aug-16 15:32N 37°24' E 025°13'0 0.0
2014-Aug-16 14:33N 37°24' E 025°13'0 0.2
2014-Aug-16 13:32N 37°24' E 025°13'0 0.4
2014-Aug-16 12:33N 37°24' E 025°13'2 2.4
2014-Aug-16 11:32N 37°23' E 025°16'0 0.0
2014-Aug-16 10:32N 37°23' E 025°16'0 0.0
2014-Aug-16 09:32N 37°23' E 025°16'0 0.2
2014-Aug-16 08:33N 37°24' E 025°16'4 4.1
2014-Aug-16 07:33N 37°27' E 025°19'1 0.6
2014-Aug-16 06:33N 37°27' E 025°19'0 0.0
2014-Aug-16 05:33N 37°27' E 025°19'0 0.0
2014-Aug-16 04:33N 37°27' E 025°19'0 0.0
2014-Aug-16 03:33N 37°27' E 025°19'0 0.0
2014-Aug-16 02:33N 37°27' E 025°19'0 0.0
2014-Aug-16 01:33N 37°27' E 025°19'0 0.0
2014-Aug-16 00:33N 37°27' E 025°19'0 0.0
2014-Aug-15 23:33N 37°27' E 025°19'0 0.0
2014-Aug-15 22:33N 37°27' E 025°19'0 0.0
2014-Aug-15 21:33N 37°27' E 025°19'0 0.0
2014-Aug-15 20:33N 37°27' E 025°19'0 0.0
2014-Aug-15 19:33N 37°27' E 025°19'0 0.0
2014-Aug-15 18:33N 37°27' E 025°19'0 0.0
2014-Aug-15 17:33N 37°27' E 025°19'0 0.0
2014-Aug-15 16:33N 37°27' E 025°19'3 3.0
2014-Aug-15 15:33N 37°24' E 025°19'4 4.0
2014-Aug-15 14:31N 37°25' E 025°24'0 0.0
2014-Aug-15 13:25N 37°25' E 025°24'0 0.0
2014-Aug-15 12:31N 37°25' E 025°24'0 0.0
2014-Aug-15 11:31N 37°25' E 025°24'0 0.0
2014-Aug-15 10:31N 37°25' E 025°24'0 0.0
2014-Aug-15 09:31N 37°25' E 025°24'7 7.4
2014-Aug-15 08:33N 37°18' E 025°22'8 7.9
2014-Aug-15 07:33N 37°11' E 025°22'5 4.7
2014-Aug-15 06:33N 37°06' E 025°22'0 0.0
2014-Aug-15 05:33N 37°06' E 025°22'0 0.0
2014-Aug-15 04:33N 37°06' E 025°22'0 0.0
2014-Aug-15 03:33N 37°06' E 025°22'0 0.0
2014-Aug-15 02:33N 37°06' E 025°22'0 0.0
2014-Aug-15 01:33N 37°06' E 025°22'0 0.0
2014-Aug-15 00:33N 37°06' E 025°22'0 0.0
2014-Aug-14 23:33N 37°06' E 025°22'0 0.0
2014-Aug-14 22:33N 37°06' E 025°22'0 0.0
2014-Aug-14 21:33N 37°06' E 025°22'0 0.0
2014-Aug-14 20:33N 37°06' E 025°22'0 0.0
2014-Aug-14 19:33N 37°06' E 025°22'0 0.0
2014-Aug-14 18:33N 37°06' E 025°22'0 0.0
2014-Aug-14 17:33N 37°06' E 025°22'0 0.0
2014-Aug-14 16:33N 37°06' E 025°22'0 0.0
2014-Aug-14 15:33N 37°06' E 025°22'0 0.0
2014-Aug-14 14:33N 37°06' E 025°22'0 0.0
2014-Aug-14 13:33N 37°06' E 025°22'0 0.0
2014-Aug-14 12:33N 37°06' E 025°22'0 0.0
2014-Aug-14 11:33N 37°06' E 025°22'0 0.0
2014-Aug-14 10:33N 37°06' E 025°22'0 0.0
2014-Aug-14 09:33N 37°06' E 025°22'0 0.0
2014-Aug-14 08:33N 37°06' E 025°22'0 0.1
2014-Aug-14 07:32N 37°06' E 025°22'0 0.0
2014-Aug-14 06:31N 37°06' E 025°22'0 0.0
2014-Aug-14 05:31N 37°06' E 025°22'0 0.0
2014-Aug-14 04:32N 37°06' E 025°22'0 0.0
2014-Aug-14 03:32N 37°06' E 025°22'0 0.0
2014-Aug-14 02:29N 37°06' E 025°22'0 0.0
2014-Aug-14 01:32N 37°06' E 025°22'0 0.0
2014-Aug-14 00:29N 37°06' E 025°22'0 0.0
2014-Aug-13 23:32N 37°06' E 025°22'0 0.0
2014-Aug-13 22:32N 37°06' E 025°22'0 0.0
2014-Aug-13 21:29N 37°06' E 025°22'0 0.0
2014-Aug-13 20:32N 37°06' E 025°22'0 0.0
2014-Aug-13 19:29N 37°06' E 025°22'0 0.0
2014-Aug-13 18:32N 37°06' E 025°22'0 0.0
2014-Aug-13 17:32N 37°06' E 025°22'0 0.0
2014-Aug-13 16:29N 37°06' E 025°22'0 0.5
2014-Aug-13 15:33N 37°06' E 025°22'6 5.8
2014-Aug-13 14:33N 37°01' E 025°20'8 7.5
2014-Aug-13 13:32N 36°53' E 025°23'4 4.3
2014-Aug-13 12:33N 36°50' E 025°25'0 0.0
2014-Aug-13 11:27N 36°50' E 025°25'0 0.0
2014-Aug-13 10:27N 36°50' E 025°25'0 0.0
2014-Aug-13 09:33N 36°50' E 025°25'1 1.0
2014-Aug-13 08:32N 36°49' E 025°26'5 5.3
2014-Aug-13 07:31N 36°51' E 025°32'0 0.0
2014-Aug-13 06:31N 36°51' E 025°32'0 0.0
2014-Aug-13 05:31N 36°51' E 025°32'0 0.0
2014-Aug-13 04:31N 36°51' E 025°32'0 0.0
2014-Aug-13 03:31N 36°51' E 025°32'0 0.0
2014-Aug-13 02:31N 36°51' E 025°32'0 0.0
2014-Aug-13 01:31N 36°51' E 025°32'0 0.0
2014-Aug-13 00:31N 36°51' E 025°32'0 0.0
2014-Aug-12 23:31N 36°51' E 025°32'0 0.0
2014-Aug-12 22:31N 36°51' E 025°32'0 0.0
2014-Aug-12 21:25N 36°51' E 025°32'0 0.0
2014-Aug-12 20:31N 36°51' E 025°32'0 0.0
2014-Aug-12 19:31N 36°51' E 025°32'0 0.0
2014-Aug-12 18:31N 36°51' E 025°32'0 0.0
2014-Aug-12 17:31N 36°51' E 025°32'0 0.0
2014-Aug-12 16:31N 36°51' E 025°32'0 0.0
2014-Aug-12 15:25N 36°51' E 025°32'0 0.0
2014-Aug-12 14:31N 36°51' E 025°32'0 0.0
2014-Aug-12 13:25N 36°51' E 025°32'1 1.4
2014-Aug-12 12:33N 36°51' E 025°33'6 5.9
2014-Aug-12 11:28N 36°51' E 025°41'0 0.0
2014-Aug-12 10:28N 36°51' E 025°41'0 0.0
2014-Aug-12 09:28N 36°51' E 025°41'0 0.0
2014-Aug-12 08:28N 36°51' E 025°41'4 4.0
2014-Aug-12 07:33N 36°50' E 025°46'5 3.8
2014-Aug-12 06:22N 36°50' E 025°51'0 0.0
2014-Aug-12 05:22N 36°50' E 025°51'0 0.0
2014-Aug-12 04:28N 36°50' E 025°51'0 0.0
2014-Aug-12 03:28N 36°50' E 025°51'0 0.0
2014-Aug-12 02:28N 36°50' E 025°51'0 0.0
2014-Aug-12 01:28N 36°50' E 025°51'0 0.0
2014-Aug-12 00:28N 36°50' E 025°51'0 0.0
2014-Aug-11 23:22N 36°50' E 025°51'0 0.0
2014-Aug-11 22:10N 36°50' E 025°51'0 0.0
2014-Aug-11 21:28N 36°50' E 025°51'0 0.0
2014-Aug-11 20:28N 36°50' E 025°51'0 0.0
2014-Aug-11 19:22N 36°50' E 025°51'0 0.0
2014-Aug-11 18:28N 36°50' E 025°51'0 0.0
2014-Aug-11 17:28N 36°50' E 025°51'0 0.0
2014-Aug-11 16:22N 36°50' E 025°51'0 0.0
2014-Aug-11 15:22N 36°50' E 025°51'0 0.0
2014-Aug-11 14:28N 36°50' E 025°51'0 0.0
2014-Aug-11 13:28N 36°50' E 025°51'0 0.0
2014-Aug-11 12:28N 36°50' E 025°51'3 2.7
2014-Aug-11 11:32N 36°50' E 025°48'6 5.7
2014-Aug-11 10:32N 36°46' E 025°42'7 7.5
2014-Aug-11 09:33N 36°41' E 025°36'10 9.7
2014-Aug-11 08:33N 36°34' E 025°27'6 6.0
2014-Aug-11 07:32N 36°30' E 025°22'6 0.3
2014-Aug-10 14:10N 36°24' E 025°25'5 6.8
2014-Aug-10 13:30N 36°21' E 025°21'2 0.4
2014-Aug-10 08:29N 36°23' E 025°21'7 7.9
2014-Aug-10 07:33N 36°30' E 025°21'9 8.5
2014-Aug-10 06:33N 36°38' E 025°18'4 4.1
2014-Aug-10 05:29N 36°43' E 025°17'0 0.0
2014-Aug-10 04:30N 36°43' E 025°17'0 0.0
2014-Aug-10 03:30N 36°43' E 025°17'0 0.0
2014-Aug-10 02:30N 36°43' E 025°17'0 0.0
2014-Aug-10 01:30N 36°43' E 025°17'0 0.0
2014-Aug-10 00:30N 36°43' E 025°17'0 0.0
2014-Aug-09 23:30N 36°43' E 025°17'0 0.0
2014-Aug-09 22:30N 36°43' E 025°17'0 0.0
2014-Aug-09 21:24N 36°43' E 025°17'0 0.0
2014-Aug-09 20:24N 36°43' E 025°17'0 0.0
2014-Aug-09 19:24N 36°43' E 025°17'0 0.0
2014-Aug-09 18:30N 36°43' E 025°17'0 0.0
2014-Aug-09 17:30N 36°43' E 025°17'1 0.7
2014-Aug-09 16:19N 36°43' E 025°16'0 0.1
2014-Aug-09 15:30N 36°43' E 025°16'0 0.0
2014-Aug-09 14:30N 36°43' E 025°16'0 0.1
2014-Aug-09 13:33N 36°43' E 025°16'6 6.0
2014-Aug-09 12:33N 36°40' E 025°09'3 3.1
2014-Aug-09 11:32N 36°39' E 025°06'0 0.0
2014-Aug-09 10:32N 36°39' E 025°06'0 0.1
2014-Aug-09 09:32N 36°39' E 025°06'7 6.6
2014-Aug-09 08:31N 36°41' E 024°58'8 8.3
2014-Aug-09 07:33N 36°47' E 024°51'8 8.2
2014-Aug-09 06:33N 36°52' E 024°44'  

Dump ship's entire track history